[[{"header":{"parameterUnit":"m.s-1","parameterCategory":1,"la1":30.2991,"la2":30.254,"lo1":-89.0895,"lo2":-89.0444,"dy":0.0017,"dx":0.0017,"nx":28,"ny":28,"refTime":"2024-05-07T21:00:00:Z","depth":0,"parameterNumber":2,"parameterNumberName":"U-component_of_WINDS"},"data":[0,0,0,0,0,0,0,0,0,0,0,0,0,0,0,0,0,0,0,0,0,0,0,0,0,0,0,0,0,0,0,0,0,0,0,0,0,0,0,0,0,0,0,0,0,0,0,0,0,0,0,0,0,0,0,0,0,0,-1.9501,-1.9501,0,-1.9507,-1.9507,-1.9507,-1.9495,-1.9495,-1.9495,-1.9494,-1.95,-1.9501,-1.9501,0,0,0,0,0,0,0,0,0,0,0,0,0,-1.9482,-1.9482,-1.9501,-1.9501,-1.9501,-1.9507,-1.9507,-1.9507,-1.9495,-1.9495,-1.9494,-1.9494,-1.95,-1.9501,-1.9502,0,0,0,0,0,0,0,0,0,0,0,0,0,-1.9489,-1.9482,-1.9501,-1.9496,-1.9496,-1.9507,-1.9507,-1.9507,-1.9495,-1.9495,-1.9494,-1.9494,-1.95,-1.9501,-1.9502,-1.9518,0,0,-1.9504,-1.9504,0,0,0,0,0,0,0,0,-1.9489,-1.949,-1.9497,-1.9497,-1.9496,-1.95,-1.9502,-1.9511,-1.9496,-1.9496,-1.9494,-1.9494,-1.9501,-1.9501,-1.9504,-1.9518,-1.9518,-1.9504,-1.9505,-1.9505,-1.9505,0,0,0,0,0,0,0,-1.9488,-1.9489,-1.9503,-1.9497,-1.9497,-1.9494,-1.9494,-1.9504,-1.9501,-1.9496,-1.9495,-1.9496,-1.95,-1.9503,-1.9504,-1.9518,-1.9504,-1.9505,-1.9505,-1.9506,-1.9547,-1.9547,0,0,0,0,0,0,-1.9488,-1.9489,-1.9503,-1.9504,-1.9491,-1.9495,-1.9495,-1.9499,-1.9501,-1.9501,-1.9496,-1.9495,-1.9502,-1.9503,-1.9504,-1.9523,-1.9505,-1.9506,-1.9506,-1.9546,-1.9547,-1.9548,0,0,0,0,0,0,-1.9488,-1.9489,-1.9503,-1.9496,-1.9498,-1.9496,-1.95,-1.95,-1.9502,-1.9501,-1.9501,-1.9499,-1.9502,-1.9503,-1.9514,-1.9523,-1.9506,-1.9507,-1.9545,-1.9546,-1.9547,-1.9561,0,0,0,0,0,0,-1.9487,-1.9489,-1.9495,-1.9496,-1.9498,-1.9513,-1.9501,-1.95,-1.9503,-1.9502,-1.9504,-1.9504,-1.9501,-1.9513,-1.9515,-1.9524,-1.9507,-1.9545,-1.9546,-1.9547,-1.956,-1.9562,-1.9565,0,0,0,0,0,-1.9486,-1.9499,-1.9495,-1.9497,-1.9505,-1.9514,-1.9515,-1.9511,-1.9504,-1.951,-1.951,-1.9504,-1.9522,-1.9515,-1.9517,-1.9526,-1.9544,-1.9545,-1.9547,-1.9559,-1.9562,-1.9564,0,0,0,0,0,0,-1.9499,-1.9499,-1.9495,-1.9508,-1.9511,-1.9512,-1.9519,-1.9514,-1.9519,-1.9518,-1.9513,-1.9514,-1.9526,-1.9527,-1.9519,-1.9542,-1.9532,-1.9534,-1.954,-1.9543,-1.9546,-1.9545,-1.9508,0,0,0,0,0,-1.9503,-1.951,-1.951,-1.9521,-1.9523,-1.9521,-1.9524,-1.9521,-1.9524,-1.9525,-1.9526,-1.9529,-1.9535,-1.9539,-1.9545,-1.956,-1.9561,-1.9567,-1.957,-1.9572,-1.9573,-1.9581,-1.9584,-1.9552,-1.9552,-1.9552,0,0,-1.9512,-1.9513,-1.9517,-1.9524,-1.9525,-1.9533,-1.9522,-1.953,-1.9535,-1.9526,-1.9537,-1.9538,-1.9541,-1.9555,-1.956,-1.9556,-1.9582,-1.9574,-1.9575,-1.9576,-1.9583,-1.9586,-1.9589,-1.9553,-1.9553,-1.9553,0,0,-1.9532,-1.9533,-1.9543,-1.9545,-1.9548,-1.9546,-1.9549,-1.955,-1.955,-1.9561,-1.9555,-1.9562,-1.9573,-1.9575,-1.9578,-1.9599,-1.9594,-1.9602,-1.9614,-1.9622,-1.9624,-1.9626,-1.9634,-1.9636,-1.9603,-1.9603,-1.9603,0,-1.9542,-1.9552,-1.9548,-1.9557,-1.956,-1.9553,-1.9563,-1.9565,-1.957,-1.9572,-1.9567,-1.9581,-1.9582,-1.9596,-1.9602,-1.9604,-1.9607,-1.9601,-1.9624,-1.9626,-1.9628,-1.9635,-1.9638,-1.9604,-1.9604,-1.9604,-1.9604,0,-1.9565,-1.9572,-1.958,-1.9585,-1.9589,-1.9598,-1.9596,-1.9601,-1.9598,-1.9597,-1.9608,-1.961,-1.9616,-1.962,-1.9617,-1.9633,-1.963,-1.9625,-1.9615,-1.9632,-1.9639,-1.9641,-1.9605,-1.9605,-1.9605,-1.9604,0,0,-1.9592,-1.9595,-1.9598,-1.96,-1.9603,-1.9608,-1.9617,-1.9623,-1.9627,-1.9631,-1.9639,-1.9649,-1.9644,-1.9647,-1.9644,-1.9651,-1.9668,-1.9645,-1.9645,-1.9649,-1.9686,-1.969,-1.9693,-1.9665,-1.9666,-1.9666,-1.9686,0,-1.9611,-1.9627,-1.9624,-1.9639,-1.9645,-1.9639,-1.9647,-1.965,-1.965,-1.9656,-1.9656,-1.9663,-1.9656,-1.9658,-1.9664,-1.9665,-1.9676,-1.9663,-1.9672,-1.9672,-1.9671,-1.9697,-1.9701,-1.972,-1.9689,-1.9689,-1.9689,0,-1.9636,-1.964,-1.9656,-1.9658,-1.966,-1.9668,-1.9673,-1.9679,-1.9682,-1.9682,-1.9686,-1.9682,-1.9691,-1.9682,-1.9695,-1.9687,-1.9691,-1.9691,-1.9692,-1.9692,-1.9681,-1.9697,-1.9726,-1.9728,-1.9693,-1.9693,-1.9693,0,-1.9653,-1.9663,-1.9674,-1.9676,-1.9679,-1.9684,-1.9685,-1.9688,-1.9692,-1.9697,-1.9699,-1.9706,-1.9709,-1.9714,-1.9712,-1.9705,-1.9726,-1.9716,-1.9725,-1.9725,-1.9729,-1.9729,-1.9758,-1.9733,-1.9733,-1.9733,-1.9733,0,-1.9675,-1.9685,-1.9682,-1.9689,-1.9699,-1.9696,-1.9707,-1.9708,-1.9711,-1.9718,-1.9713,-1.9719,-1.9717,-1.9723,-1.9722,-1.9733,-1.9735,-1.9735,-1.9734,-1.9735,-1.9735,-1.9737,-1.9735,-1.9733,-1.9733,-1.9733,-1.9733,0,-1.9696,-1.9695,-1.9706,-1.9708,-1.9708,-1.9716,-1.9718,-1.9724,-1.9724,-1.9733,-1.9735,-1.9734,-1.9742,-1.9741,-1.9749,-1.9749,-1.9762,-1.976,-1.9761,-1.976,-1.977,-1.9769,-1.9801,-1.9805,-1.9777,-1.9777,-1.9777,0,-1.971,-1.9717,-1.972,-1.9724,-1.9726,-1.9732,-1.9736,-1.9734,-1.9738,-1.9742,-1.9748,-1.9755,-1.9761,-1.9773,-1.9774,-1.978,-1.9778,-1.9789,-1.9779,-1.978,-1.9778,-1.9778,-1.9778,-1.9791,-1.9791,-1.9791,-1.9792,0,-1.9734,-1.9733,-1.9739,-1.9744,-1.9749,-1.9753,-1.9757,-1.9761,-1.9759,-1.9764,-1.9771,-1.9775,-1.9784,-1.9791,-1.9797,-1.9799,-1.9795,-1.9795,-1.9797,-1.9798,-1.9798,-1.9798,-1.9766,-1.9794,-1.9794,-1.9794,-1.9793,-1.9793,-1.9752,-1.9758,-1.9761,-1.9767,-1.977,-1.9774,-1.978,-1.978,-1.9786,-1.9793,-1.9791,-1.9799,-1.9803,-1.9811,-1.9813,-1.982,-1.9816,-1.982,-1.9821,-1.9822,-1.9823,-1.9797,-1.9822,-1.9821,-1.9821,-1.9821,-1.9821,0,-1.9776,-1.9777,-1.9783,-1.9789,-1.9794,-1.979,-1.9794,-1.9798,-1.9806,-1.9809,-1.9815,-1.9823,-1.983,-1.9832,-1.9838,-1.9844,-1.9842,-1.9845,-1.9845,-1.9845,-1.9826,-1.9823,-1.9847,-1.9847,-1.9847,-1.9847,-1.9847,-1.9847,-1.9789,-1.9799,-1.9799,-1.981,-1.9812,-1.982,-1.9822,-1.9826,-1.9829,-1.9838,-1.9844,-1.9845,-1.9848,-1.9854,-1.9861,-1.9861,-1.9864,-1.9868,-1.9867,-1.9849,-1.9847,-1.9844,-1.9841,-1.9868,-1.9868,-1.9886,-1.9886,-1.9886]},{"header":{"parameterUnit":"m.s-1","parameterCategory":1,"la1":30.2991,"la2":30.254,"lo1":-89.0895,"lo2":-89.0444,"dy":0.0017,"dx":0.0017,"nx":28,"ny":28,"refTime":"2024-05-07T21:00:00:Z","depth":0,"parameterNumber":3,"parameterNumberName":"V-component_of_WINDS"},"data":[0,0,0,0,0,0,0,0,0,0,0,0,0,0,0,0,0,0,0,0,0,0,0,0,0,0,0,0,0,0,0,0,0,0,0,0,0,0,0,0,0,0,0,0,0,0,0,0,0,0,0,0,0,0,0,0,0,0,6.1472,6.1472,0,6.1495,6.1495,6.1496,6.143,6.1428,6.1426,6.1424,6.1444,6.1446,6.1449,0,0,0,0,0,0,0,0,0,0,0,0,0,6.1367,6.1369,6.1472,6.1472,6.1472,6.1495,6.1495,6.1496,6.143,6.1427,6.1425,6.1423,6.1443,6.1446,6.1449,0,0,0,0,0,0,0,0,0,0,0,0,0,6.1404,6.137,6.1472,6.1442,6.144,6.1495,6.1495,6.1496,6.143,6.1427,6.1424,6.1422,6.1442,6.1446,6.1449,6.1533,0,0,6.1461,6.1462,0,0,0,0,0,0,0,0,6.1402,6.1408,6.1446,6.1445,6.1442,6.1456,6.1466,6.1508,6.1431,6.1434,6.1424,6.142,6.145,6.1453,6.1464,6.1534,6.1535,6.1461,6.1463,6.1465,6.1466,0,0,0,0,0,0,0,6.1399,6.1406,6.1481,6.1447,6.1444,6.1427,6.1429,6.1473,6.1459,6.1434,6.1429,6.1433,6.1449,6.1461,6.1464,6.1535,6.1461,6.1464,6.1466,6.1468,6.1673,6.1677,0,0,0,0,0,0,6.1401,6.1405,6.148,6.1482,6.1414,6.1431,6.1433,6.1455,6.1458,6.1456,6.1435,6.143,6.1456,6.146,6.1465,6.1562,6.1465,6.1468,6.147,6.167,6.1674,6.1678,0,0,0,0,0,0,6.1399,6.1408,6.1479,6.1442,6.1449,6.1436,6.1461,6.1457,6.1469,6.146,6.1456,6.1451,6.1454,6.1459,6.1516,6.1562,6.147,6.1473,6.1666,6.1671,6.1676,6.1757,0,0,0,0,0,0,6.1396,6.1408,6.144,6.1443,6.1452,6.1532,6.1464,6.1459,6.1476,6.1469,6.1473,6.1471,6.1452,6.1511,6.152,6.1565,6.1476,6.1662,6.1669,6.1674,6.1751,6.1765,6.1776,0,0,0,0,0,6.1393,6.1462,6.1442,6.1452,6.1492,6.1535,6.1539,6.1517,6.148,6.1511,6.1505,6.1471,6.1556,6.1518,6.1527,6.1574,6.1659,6.1667,6.1674,6.1745,6.1762,6.1776,0,0,0,0,0,0,6.1463,6.1461,6.144,6.1512,6.1524,6.1523,6.1563,6.1536,6.1558,6.155,6.152,6.1522,6.1584,6.1584,6.1542,6.1654,6.1601,6.161,6.1652,6.1668,6.168,6.1678,6.1479,0,0,0,0,0,6.1487,6.1523,6.1519,6.1583,6.159,6.1576,6.1593,6.1575,6.1586,6.1591,6.1589,6.16,6.1629,6.1648,6.1674,6.1751,6.175,6.1787,6.18,6.1811,6.1819,6.1859,6.1875,6.1702,6.1702,6.1702,0,0,6.1537,6.154,6.1564,6.1597,6.1604,6.1641,6.158,6.1622,6.1648,6.1596,6.165,6.165,6.166,6.1727,6.1756,6.1729,6.1867,6.182,6.1829,6.1831,6.1868,6.1885,6.1899,6.1707,6.1706,6.1705,0,0,6.1646,6.1653,6.1706,6.1715,6.1728,6.1718,6.1731,6.1735,6.1732,6.1786,6.1748,6.1779,6.183,6.1838,6.185,6.1963,6.1932,6.1973,6.2039,6.2079,6.2092,6.2104,6.2144,6.2159,6.1981,6.1981,6.1981,0,6.1705,6.176,6.1737,6.1781,6.1797,6.1753,6.1807,6.1816,6.1836,6.1847,6.1817,6.188,6.1884,6.1952,6.198,6.199,6.2004,6.1971,6.2093,6.2104,6.2115,6.2153,6.2168,6.1986,6.1985,6.1985,6.1984,0,6.1833,6.1871,6.1913,6.1935,6.1955,6.2004,6.1987,6.201,6.199,6.1983,6.2039,6.2042,6.2068,6.2083,6.2064,6.2149,6.2132,6.2098,6.2043,6.2137,6.2171,6.2186,6.1993,6.1991,6.199,6.1989,0,0,6.1985,6.1995,6.201,6.202,6.203,6.2059,6.2106,6.2133,6.2153,6.2168,6.2205,6.225,6.2219,6.2232,6.2213,6.2248,6.2337,6.2209,6.2209,6.2232,6.243,6.2455,6.2472,6.2317,6.2319,6.2322,6.2429,0,6.2092,6.2174,6.2154,6.2234,6.2269,6.2229,6.2269,6.228,6.2275,6.2303,6.2296,6.2328,6.2285,6.2292,6.2325,6.2319,6.2376,6.2311,6.235,6.2352,6.2348,6.249,6.2516,6.2617,6.2442,6.2444,6.2446,0,6.2228,6.225,6.2334,6.2339,6.2353,6.239,6.2413,6.2441,6.2452,6.2445,6.246,6.2435,6.248,6.2427,6.2488,6.2444,6.2459,6.2459,6.2462,6.2464,6.2404,6.2495,6.2649,6.2664,6.2467,6.2466,6.2464,0,6.233,6.238,6.2437,6.2446,6.2454,6.2481,6.2485,6.2493,6.2511,6.2531,6.2541,6.2566,6.2579,6.2598,6.258,6.2543,6.2644,6.2589,6.2639,6.264,6.2661,6.266,6.2819,6.2673,6.2673,6.2672,6.2672,0,6.2451,6.2503,6.2483,6.2518,6.2575,6.2553,6.261,6.2609,6.2617,6.265,6.2616,6.2648,6.2622,6.2652,6.2638,6.269,6.2696,6.2692,6.2687,6.2694,6.2695,6.2703,6.2695,6.2676,6.2675,6.2675,6.2674,0,6.2574,6.2563,6.2622,6.2625,6.2627,6.2669,6.2671,6.2703,6.2696,6.2738,6.2747,6.2735,6.2768,6.2752,6.2786,6.2776,6.2844,6.283,6.284,6.2836,6.2887,6.2883,6.3056,6.3078,6.2919,6.292,6.2921,0,6.2652,6.2692,6.2699,6.272,6.2727,6.276,6.2778,6.2757,6.2777,6.2793,6.2822,6.2852,6.2875,6.2929,6.2923,6.2948,6.2934,6.2994,6.2938,6.2944,6.2934,6.2932,6.2935,6.3005,6.3006,6.3008,6.3009,0,6.279,6.2783,6.2811,6.2837,6.286,6.2879,6.2895,6.2914,6.2893,6.2917,6.2951,6.2969,6.3004,6.3033,6.3056,6.3059,6.3031,6.3027,6.304,6.3047,6.3051,6.3049,6.287,6.3023,6.3021,6.302,6.302,6.3019,6.2893,6.2926,6.2937,6.2969,6.298,6.2996,6.3026,6.3023,6.3051,6.3078,6.3064,6.3103,6.3113,6.314,6.3147,6.3176,6.3153,6.3172,6.3176,6.3181,6.3187,6.3047,6.3181,6.318,6.318,6.3179,6.3179,0,6.3029,6.3034,6.3064,6.3089,6.3114,6.3087,6.3103,6.3126,6.3161,6.3173,6.3196,6.3235,6.3264,6.3261,6.3287,6.3311,6.3299,6.3318,6.3316,6.3317,6.3207,6.3193,6.3328,6.3328,6.3328,6.3328,6.3328,6.3328,6.3103,6.3158,6.3152,6.3211,6.3216,6.3255,6.3267,6.3281,6.329,6.3335,6.336,6.3358,6.3363,6.339,6.3415,6.3413,6.3424,6.3449,6.3442,6.3339,6.3325,6.3311,6.3297,6.3451,6.3451,6.3549,6.355,6.355]}]]